x

8454000 - Providence, Ri (foxr1) Weather Station

11:48 - Fri 17th Apr 2015 All times are EDT. -4 hours from GMT.

  • Wind
    3mph
  • Sea Temp 47°f
  • Air Temp 52°f
  • Sea Pressure 1012.4mb
  • 8454000 - Providence, Ri
  • 8454000 - Providence, Ri

More Historic Weather Station data

Upgrade to MSW Pro to gain access to the past 30 days of data for over 8000 Wavebouys and Weather Stations around the globe.

Join Pro

Comparision Forecast

View Surf forecast
   
ven. 04/17 11:48 3
mph
1012.4mb 47f 52f
11:42 2 3 mph 1012.5mb 47f 51f
11:36 3 5 mph 1012.5mb 47f 51f
11:30 3 5 mph 1012.5mb 47f 51f
11:24 3 6 mph 1012.6mb 47f 51f
11:18 5 6 mph 1012.5mb 47f 51f
11:12 2 5 mph 1012.5mb 47f 53f
11:06 5 6 mph 1012.5mb 47f 53f
11:00 3
mph
- - -
10:54 3
mph
1012.5mb 46f 53f
10:48 3
mph
1012.4mb 46f 53f
10:42 2 3 mph 1012.4mb 46f 53f
10:36 1 2 mph 1012.4mb 46f 53f
10:30 3
mph
1012.3mb 46f 53f
10:24 2 3 mph 1012.3mb 46f 53f
10:18  -  3 mph 1012.3mb 46f 54f
10:12 3
mph
1012.2mb 45f 54f
10:06 2 3 mph 1012.3mb 45f 53f
10:00 3 5 mph 1012.3mb 45f 53f
9:54 5
mph
1012.2mb 45f 53f
9:48 3 5 mph 1012.2mb 45f 53f
9:42 3
mph
1012.2mb 45f 53f
9:36 3 5 mph 1012.2mb 45f 54f
9:30 3
mph
1012.2mb 45f 54f
9:24 3 5 mph 1012.2mb 45f 54f
9:18 3 5 mph - - -
9:12  -  3 mph 1012mb 45f 54f
9:06  -  1 mph 1011.9mb 45f 54f
9:00 1 3 mph 1011.9mb 45f 55f
8:54 3 6 mph 1011.8mb 45f 55f
8:48 2 3 mph 1011.7mb 45f 55f
8:42 3 6 mph 1011.7mb 45f 54f
8:36 6 7 mph 1011.7mb 45f 55f
8:30 5 6 mph 1011.7mb 45f 55f
8:24 6 8 mph 1011.6mb 45f 55f
8:18 5 7 mph 1011.6mb 45f 55f
8:12 6 7 mph 1011.6mb 45f 55f
8:06 6 8 mph 1011.5mb 45f 55f
8:00 7
mph
1011.4mb 45f 55f
7:54 5 6 mph 1011.2mb 45f 57f
7:48 6
mph
1011.2mb 45f -
7:42 2 5 mph 1011.3mb 45f 58f
7:36 3 5 mph 1011.2mb 45f 64f
7:30 2 5 mph 1011.1mb 45f 64f
7:24 5 7 mph 1011.1mb 45f 64f
7:18 6 9 mph 1011.1mb 45f 64f
7:12 8 10 mph 1011mb 45f 64f
7:06 6 10 mph 1011mb 45f 64f
7:00 8 10 mph 1011mb 45f 65f
6:54 5 9 mph 1011mb 45f 65f
6:48 8 11 mph 1011mb 45f 64f
6:42 5 7 mph 1010.9mb 45f 64f
6:36 3 6 mph 1010.9mb 45f 64f
6:30 5 8 mph 1010.8mb 45f 64f
6:24 3 9 mph 1010.8mb 45f 64f
6:18 8 10 mph 1010.8mb 45f 64f
6:12 6 9 mph 1010.7mb 45f 65f
6:06 7 9 mph - - -
5:54 7 11 mph 1010.8mb 46f 64f
5:48 7 13 mph 1010.8mb 46f 64f
5:42 9 14 mph - - -
5:36 9 11 mph 1010.7mb 46f 64f
5:30 6 10 mph 1010.8mb 46f 65f
5:24 8 9 mph 1010.8mb 46f 64f
5:18 8 11 mph 1010.7mb 46f 64f
5:12 7 10 mph - - -
5:06 7 10 mph 1011mb 46f 64f
5:00 7 14 mph 1011mb 46f 64f
4:54 10 15 mph 1011mb 46f 64f
4:48 9 15 mph 1011.1mb 45f 64f
4:36 9 15 mph 1011.1mb 45f 63f
4:30 10 14 mph 1011.1mb 45f 63f
4:24 10 14 mph 1011.1mb 45f 63f
4:18 7 14 mph 1011.1mb 45f 64f
4:12 10 14 mph 1011.2mb 45f 63f
4:06 8 14 mph 1011.2mb 46f 63f
4:00 10 14 mph 1011.2mb 46f 62f
3:54 9 14 mph 1011.2mb 46f 62f
3:48 6 11 mph 1011.4mb 46f 63f
3:42 10 13 mph 1011.4mb 46f 62f
3:36 9 15 mph 1011.5mb 46f 62f
3:30 8 13 mph - - -
3:24 8 11 mph 1011.7mb 46f 62f
3:18 8 14 mph 1011.7mb 46f 62f
3:12 9 18 mph 1011.7mb 46f 61f
3:06 8 15 mph 1011.8mb 46f 61f
3:00 11 15 mph 1011.8mb 46f 61f
2:54 11 17 mph 1011.9mb 46f 61f
2:48 13 21 mph 1012.1mb 47f 61f
2:42 9 18 mph 1012.3mb 47f 61f
2:36 9 20 mph 1012.4mb 47f 61f
2:30 13 16 mph 1012.4mb 47f 60f
2:24 10 18 mph 1012.5mb 47f 60f
2:18 10 18 mph 1012.6mb 47f 60f
2:12 10 15 mph 1012.6mb 47f 60f
2:06 14 20 mph 1012.7mb 47f 60f
2:00 11 17 mph 1012.8mb 47f 60f
1:54 10 18 mph 1013mb 47f 60f
1:48 8 14 mph 1013.1mb 47f 60f
1:42 10 18 mph 1013.2mb 47f 59f
1:36 16 21 mph 1013.2mb 47f 59f
1:30 14 17 mph 1013.4mb 47f 59f
1:24 13 17 mph 1013.4mb 47f 58f
1:18 14 18 mph - - -
1:12 11 18 mph 1013.6mb 47f 58f
1:06 14 20 mph 1013.6mb 47f 58f
1:00 13 18 mph 1013.7mb 47f 58f
12:54 10 22 mph 1013.8mb 47f 58f
12:48 15 20 mph 1013.9mb 47f 58f
12:42 11 18 mph 1014.1mb 47f 58f
12:36 11 15 mph 1014.2mb 47f 58f
12:30 8 17 mph 1014.3mb 47f 58f
12:24 11 21 mph 1014.3mb 47f 58f
12:18 15 20 mph 1014.4mb 47f -
12:12 14 18 mph 1014.4mb 47f 57f
12:06 13 20 mph 1014.5mb 47f 57f
12:00 11 16 mph 1014.7mb 47f 57f
11:54 10 17 mph 1014.8mb 47f 57f
11:48 9 21 mph 1014.9mb 47f 57f
11:42 11 20 mph 1014.9mb 47f 57f
11:36 11 17 mph 1014.9mb 47f 56f
11:30 10 20 mph - - -
11:24 13 17 mph 1015.1mb 47f 56f
11:18 9 16 mph 1015.2mb 47f 56f
11:12 11 18 mph 1015.4mb 47f 56f
11:06 13 20 mph 1015.4mb 47f 56f
11:00 13 18 mph 1015.5mb 46f 56f
10:54 10 16 mph 1015.6mb 46f 56f
10:48 14 17 mph 1015.6mb 46f 56f
10:42 10 16 mph 1015.6mb 46f 56f
10:36 8 14 mph 1015.7mb 46f 56f
10:24 10 16 mph 1015.9mb 46f 56f
10:18 10 16 mph 1016mb 46f 56f
10:12 13 22 mph 1016mb 46f 56f
10:06 10 23 mph 1016.1mb 46f 56f
10:00 11 17 mph 1016.2mb 46f 56f
9:54 11 20 mph 1016.4mb 46f 55f
9:48 11 16 mph 1016.5mb 46f 55f
9:42 9 16 mph 1016.6mb 46f 55f
9:36 14 20 mph 1016.7mb 46f 55f
9:30 10 17 mph 1016.8mb 46f 55f
9:24 11 18 mph 1016.9mb 45f 55f
9:18 10 16 mph 1017mb 45f 54f
9:12 13 17 mph 1017.1mb 45f 54f
9:06 8 15 mph 1017.3mb 45f 53f
9:00 8 13 mph 1017.4mb 45f 53f
8:54 6 9 mph 1017.5mb 45f 53f
8:48 7 10 mph 1017.6mb 45f 52f
8:42 7 11 mph 1017.8mb 45f 52f
8:36 7 9 mph 1017.8mb 45f 51f
8:30 7 10 mph 1017.9mb 45f 51f
8:24 8 10 mph 1018.1mb 45f 51f
8:18 6 9 mph 1018.2mb 45f 51f
8:12 7 9 mph 1018.2mb 45f 51f
8:06 7 10 mph 1018.3mb 45f 51f
8:00 7 10 mph 1018.4mb 45f 51f
7:54 6 9 mph 1018.5mb 45f 51f
7:48 7 11 mph 1018.5mb 45f 51f
7:42 6 9 mph 1018.6mb 45f 51f
7:36 9 13 mph 1018.6mb 45f 51f
7:30 7 10 mph 1018.6mb 45f 51f
7:24 8 10 mph 1018.6mb 45f 51f
7:18 7 10 mph 1018.6mb - -
7:12 6 9 mph 1018.7mb 45f 51f
7:06 7 10 mph 1018.7mb 45f 51f
7:00 7 9 mph 1018.7mb 45f 51f
6:54 6 8 mph 1018.8mb 45f 51f
6:48 5 7 mph 1018.9mb 45f 52f
6:42 7 10 mph 1018.8mb 45f 52f
6:36 2 5 mph 1018.9mb 45f 52f
6:30 2 3 mph 1019mb 45f 52f
6:24 2 5 mph 1018.9mb 45f 52f
6:18 3 6 mph 1018.9mb 45f 52f
6:12 3 5 mph 1018.9mb 45f 52f
6:06 2 6 mph 1018.8mb 45f 52f
6:00  -  mph 1018.8mb 45f 52f
5:54 6 9 mph 1018.8mb 45f 53f
5:48  -  mph 1018.9mb - -
5:42 9 15 mph 1019mb 45f 53f
5:36 13 16 mph 1018.9mb 45f 53f
5:30 10 14 mph 1018.9mb 45f 53f
5:24 8 14 mph 1018.9mb 45f 53f
5:18 9 15 mph 1019mb 45f 53f
5:12 7 13 mph 1019mb 45f 50f
5:06 3 5 mph 1019mb 45f 49f
5:00 3 5 mph 1019.2mb 45f 49f
4:54 5 6 mph 1019.2mb 45f 49f
4:48 3 5 mph - - -
4:42 3 7 mph 1019.4mb 45f 49f
4:36 6 7 mph 1019.4mb 45f 49f
4:30 5 6 mph 1019.5mb 45f 49f
4:24 6 7 mph 1019.6mb 45f 49f
4:18 5 8 mph 1019.7mb 46f 48f
4:12 6 8 mph 1019.8mb 46f 48f
4:06 6 7 mph 1019.9mb 46f 48f
4:00 6 7 mph 1020.1mb 46f 48f
3:54 6 7 mph 1020.2mb 47f 48f
3:48 5 6 mph 1020.3mb 47f 48f
3:42 6 7 mph 1020.4mb 47f 48f
3:36 6 7 mph 1020.5mb 47f 48f
3:30 6 7 mph 1020.6mb 47f 47f
3:24 5 7 mph 1020.8mb 47f 47f
3:18  -  mph - - 47f
3:12 6 8 mph 1021mb - 47f
3:06 5 6 mph 1021.1mb - 47f
3:00 3 5 mph 1021.2mb 47f 47f
2:54 3 5 mph 1021.4mb 47f 47f
2:48 3 5 mph 1021.5mb 47f 47f
2:42 5
mph
1021.6mb 47f 47f
2:30 3 5 mph 1021.9mb 47f 47f
2:24 5
mph
1022mb 47f 47f
2:06 5 6 mph 1022.3mb 47f 47f
1:48 5 6 mph 1022.7mb 47f 46f
1:42 6 7 mph 1022.9mb 47f 46f
1:36 5 6 mph 1023mb 47f 46f
1:30 5 6 mph 1023.1mb 47f -
1:24 3 5 mph 1023.2mb 47f 46f
1:18 3 5 mph 1023.3mb 47f 46f
1:12 5 6 mph 1023.4mb 47f 46f
1:06 5 8 mph 1023.5mb 47f 46f
1:00 6 8 mph 1023.5mb 47f 46f
12:54 6 8 mph 1023.7mb 47f 46f
12:48 7 9 mph 1023.8mb 47f 46f
12:42 6 8 mph 1023.9mb 47f 46f
12:36 7 8 mph 1023.9mb 47f 46f
12:24 6 9 mph 1024.1mb 46f 46f
12:18 6 9 mph 1024.2mb 46f 46f
12:12 5 8 mph 1024.2mb - -
12:06 6 10 mph 1024.3mb 46f 46f
12:00 8 13 mph 1024.2mb 46f 45f
jeu. 04/16 11:54 8 10 mph 1024.3mb 46f 46f
11:48 7 10 mph 1024.4mb 46f 46f
11:42 8 10 mph 1024.6mb 46f 46f
11:36 8 10 mph 1024.8mb 46f 46f
11:30 8 10 mph 1024.8mb 46f 46f
11:24 7 8 mph 1025mb 46f 46f
11:18 7 8 mph 1025.1mb 46f 46f
11:12 7 9 mph 1025.2mb 46f 46f
11:06 8 10 mph 1025.3mb 46f 46f
11:00 10 13 mph 1025.4mb 46f 46f
10:54 8 10 mph 1025.4mb 46f 46f
10:48 9 10 mph 1025.5mb 46f 46f
10:42 7 10 mph 1025.5mb 46f 46f
10:36 7 13 mph 1025.9mb 46f 46f
10:30 7 10 mph 1025.9mb 46f 46f
10:24 7 10 mph 1026mb 46f 46f
10:18 7 10 mph 1026.1mb 46f 47f
10:12 7 13 mph 1026.2mb 46f 47f
10:06 9 13 mph 1026.2mb 46f 47f
10:00 9 13 mph 1026.3mb 46f 47f
9:54 9 13 mph 1026.3mb 46f 47f
9:48 9 11 mph 1026.4mb 45f 47f
9:42 9 13 mph 1026.5mb 45f 47f
9:36 8 13 mph 1026.6mb 45f 47f
9:30 9 11 mph 1026.7mb 45f 47f
9:24 7 11 mph 1026.7mb 45f 47f
9:18 8 10 mph 1026.7mb 45f 47f
9:12 8 10 mph 1026.8mb 45f 48f
9:06 6 13 mph 1026.8mb 45f 48f
9:00 9 11 mph 1026.8mb 45f 48f
8:54 8 13 mph 1026.8mb 45f 48f
8:48 9 14 mph 1026.9mb 45f 48f
8:42 7 11 mph 1026.9mb 45f 48f
8:36 8 11 mph 1026.9mb 45f 48f
8:30 9 13 mph 1026.9mb 45f 48f
8:24 8 13 mph 1026.9mb 45f 48f
8:18 7 14 mph 1026.9mb 45f 48f
8:12 9 14 mph 1026.8mb 45f 48f
8:06 8 13 mph 1026.7mb 45f 48f
8:00 10 14 mph 1026.7mb 45f 48f
7:54 11 15 mph 1026.7mb 45f 48f
7:48 11 15 mph 1026.6mb 45f -
7:42 11 15 mph 1026.5mb 45f 48f
7:36 11 15 mph 1026.6mb 45f 48f
7:30 11 17 mph 1026.6mb 45f 48f
7:24 10 17 mph 1026.7mb 45f 48f
7:18 10 14 mph 1026.8mb 45f 48f
7:12 13 15 mph 1026.7mb 45f 49f
7:06 10 14 mph 1026.7mb 45f 49f
7:00 10 16 mph 1026.8mb 45f 49f
6:54 10 17 mph 1026.8mb 45f 49f
6:48 14 18 mph 1026.8mb 45f -
6:42 15 17 mph 1026.7mb 45f 48f
6:36 16 20 mph 1026.8mb 45f 48f
6:30 15 21 mph 1026.8mb 45f 49f
6:24 15 20 mph 1026.9mb 45f 49f
6:18 15 22 mph 1027mb 45f 49f
6:12 18 22 mph 1027mb 45f 49f
6:06 16 20 mph 1027.1mb 45f 49f
6:00 17 22 mph 1027.2mb 45f 49f
5:54 18 22 mph 1027.3mb 45f 49f
5:48 20 22 mph - - -
5:42 17 22 mph 1027.4mb 45f 49f
5:36 17 23 mph 1027.4mb 45f 50f
5:30 17 22 mph 1027.4mb 45f 50f
5:24 16 24 mph 1027.4mb 45f 51f
5:18 17 22 mph 1027.5mb 45f 51f
5:12 21 24 mph 1027.5mb 45f 51f
5:06 17 25 mph 1027.6mb 45f 51f
5:00 21 24 mph 1027.6mb - -
4:54 18 26 mph 1027.5mb 45f 51f
4:48 18 26 mph 1027.5mb 45f 51f
4:42 18 25 mph 1027.7mb 45f 51f
4:36 21 25 mph 1027.7mb 45f 51f
4:30 21 25 mph 1027.9mb 44f 52f
4:24 20 25 mph 1028mb 44f 52f
4:18 18 25 mph 1028.1mb 44f 52f
4:12 17 26 mph 1028mb 44f 52f
4:06 18 26 mph 1027.9mb 44f 53f
4:00 21 24 mph 1027.9mb 44f 52f
3:54 20 24 mph 1028mb 44f 53f
3:48 20 24 mph 1028mb 44f 53f
3:42 20 22 mph 1028.1mb 44f 52f
3:36 17 24 mph 1028.3mb 44f 53f
3:30 16 21 mph 1028.4mb 44f 54f
3:24 16 22 mph 1028.5mb 45f 57f
3:18 18 22 mph 1028.7mb 45f 56f
3:12 18 22 mph 1028.7mb 45f 56f
3:06 16 21 mph 1028.7mb 45f 54f
3:00 18 21 mph 1028.7mb 45f 53f
2:54 17 22 mph 1028.7mb 45f 53f
2:48 17 24 mph 1028.8mb 45f 53f
2:42 18 22 mph 1028.9mb 46f 53f
2:36 15 22 mph 1028.9mb 46f 53f
2:30 13 18 mph 1029.1mb - -
2:24 16 22 mph 1029.1mb 46f 54f
2:18 17 21 mph 1029.2mb 46f 54f
2:12 16 21 mph 1029.3mb 46f 54f
2:06 20 22 mph 1029.4mb 46f 53f
2:00 16 20 mph 1029.5mb 46f 54f
1:54 16 18 mph 1029.6mb 46f 54f
1:48 15 20 mph 1029.7mb 46f 54f
1:42 17 21 mph 1029.7mb 46f 54f
1:36 15 20 mph 1029.7mb 46f 54f
1:30 17 23 mph 1029.8mb 46f 54f
1:24 17 22 mph 1029.8mb 45f 53f
1:18  -  mph 1029.9mb 45f -
1:12  -  mph 1029.9mb 45f 53f
1:06 13 15 mph 1029.9mb 45f 53f
1:00 10 13 mph 1030mb 45f 53f
12:54 11 16 mph 1030.1mb 45f 54f
12:48 13 16 mph 1030.2mb 45f 54f
12:42 10 11 mph 1030.3mb 45f 53f
12:36 9 10 mph 1030.4mb 45f 54f
12:30  -  mph 1030.5mb 45f 54f
12:24  -  mph 1030.5mb 45f 53f
12:18  -  mph 1030.6mb 45f 53f
12:12 7 10 mph 1030.7mb 45f 53f
12:06 9 11 mph 1030.8mb 45f 53f
12:00 6 10 mph 1030.9mb 45f 54f
11:54 7 11 mph 1030.9mb 45f 53f
11:48  -  mph 1031mb 45f 53f
11:42  -  mph 1031mb 45f 53f
11:36  -  mph 1031.1mb 45f 53f
11:30 7 9 mph 1031.2mb 45f 53f
11:24 7 9 mph 1031.4mb 45f 53f
11:18 7 10 mph 1031.5mb 45f 53f
11:12 7 10 mph 1031.5mb 44f 53f
11:06 5 8 mph 1031.5mb 44f 53f
11:00 7 9 mph 1031.5mb 44f 53f
10:54 3 6 mph 1031.5mb 44f 53f
10:48 7 8 mph 1031.6mb 44f 53f
10:42 2 6 mph 1031.6mb 44f 54f
10:36 2 5 mph 1031.7mb 44f 53f
10:30  -  2 mph 1031.6mb 44f 53f
10:24 2 3 mph 1031.7mb 44f 53f
10:18 1 3 mph - - -
10:12 2
mph
1031.8mb 44f 52f
10:06  -  6 mph 1031.8mb 44f 53f
10:00 6 8 mph 1031.9mb 44f 51f
9:54 6 7 mph 1031.9mb 44f 51f
9:48 3 6 mph 1031.9mb 44f 51f
9:42 6 9 mph 1031.9mb 44f 50f
9:36 8 10 mph 1031.9mb 44f 50f
9:30 9
mph
1031.8mb 43f 50f
9:24 1 5 mph 1031.9mb 43f 52f
9:18 1 2 mph 1031.9mb 43f 53f
9:12 1 2 mph 1031.7mb 43f 52f
9:06 2 5 mph 1031.7mb 43f 52f
9:00 3 6 mph 1031.7mb 43f 51f
8:54 1
mph
1031.7mb 43f 51f
8:48 1 2 mph 1031.6mb 43f 53f
8:42 1 3 mph 1031.5mb 43f 53f
8:36 2
mph
1031.6mb 43f 52f
8:30  -  1 mph 1031.6mb 43f 53f
8:24  -  1 mph 1031.6mb 43f 53f
8:18 1 2 mph - - -
8:12  -  2 mph 1031.5mb 42f 52f
8:06 1 2 mph 1031.4mb 42f 51f
8:00 1 2 mph 1031.5mb 42f 49f
7:54  -  2 mph 1031.5mb 42f 48f
7:48  -  2 mph 1031.5mb 42f 47f
7:42  -  1 mph 1031.5mb 42f 46f
7:36  -  1 mph 1031.5mb 42f 46f
7:30  -  1 mph 1031.4mb 42f 46f
7:24 1 2 mph 1031.3mb 42f 45f
7:18  -  1 mph - - -
7:12 1 2 mph 1031.3mb 42f 45f
7:06 1 2 mph 1031.3mb 42f 46f
7:00 1 2 mph 1031.2mb 42f 46f
6:54 1
mph
1031.1mb 42f 45f
6:48  -  mph 1031.2mb 42f 45f
6:42  -  1 mph 1031.1mb 42f 45f
6:36  -  1 mph 1031mb 42f 44f
6:30  -  2 mph 1031mb 42f 44f
6:24 1
mph
1030.9mb 42f 44f
6:18  -  mph 1030.8mb 42f -
6:12  -  2 mph 1030.7mb 42f 42f
6:06 2 3 mph 1030.5mb 43f 42f
6:00 3
mph
1030.4mb 43f 42f
5:54 2 3 mph 1030.3mb 43f 43f
5:48 2
mph
1030.3mb 43f 42f
5:42 1 2 mph 1030.2mb 43f 42f
5:36  -  mph 1030.1mb 43f 42f
5:30  -  mph 1030mb 43f 42f
5:24  -  2 mph 1029.9mb 43f 43f
5:18 2
mph
1029.8mb 43f 43f
5:12 2 3 mph 1029.7mb 43f 43f
5:06 3 6 mph 1029.6mb 43f 43f
5:00 5 6 mph 1029.5mb 43f 43f
4:54 5 6 mph 1029.4mb 43f 44f
4:48 3 5 mph 1029.3mb 43f 44f
4:42 5
mph
1029.3mb 43f 44f
4:36 3 5 mph 1029.1mb 43f 44f
4:30 5 6 mph 1029mb 43f 44f
4:24 5
mph
1029mb 43f 44f
4:18 2 3 mph 1029mb 43f 44f
4:12 3
mph
1029mb 43f 45f
4:06 2 3 mph 1029.1mb 43f 45f
4:00  -  1 mph 1029mb 43f 45f
3:54  -  2 mph 1029.1mb 43f 44f
3:48 2
mph
1029.1mb 44f 44f
3:42 1 2 mph 1029.2mb 44f 45f
3:36  -  1 mph 1029.2mb 44f 45f
3:30 1 2 mph 1029.2mb 44f 45f
3:24  -  2 mph 1029.2mb 44f 46f
3:18  -  mph 1029.2mb - -
3:12 1 2 mph 1029.1mb - -
3:06  -  3 mph 1029.2mb - -
3:00 2 3 mph 1029.2mb 45f 48f
2:54 1 3 mph 1029.3mb 45f 49f
2:48 1 3 mph 1029.1mb 46f 48f
2:42 2 6 mph - - -
2:30 5 7 mph 1028.9mb 46f 50f
2:18 5 7 mph 1028.8mb 46f 50f
2:12 6 8 mph 1028.7mb 46f 50f
1:54 7 10 mph 1028.5mb 46f 51f
1:42 6 8 mph 1028.6mb 46f 51f
1:36 3 5 mph 1028.6mb 46f 50f
1:30 3 7 mph 1028.4mb 46f 51f
1:24 6 10 mph 1028.2mb 46f 51f
1:18 8 10 mph 1028.2mb 46f 51f
1:12 7 11 mph 1028.3mb 46f 51f
1:06 6 10 mph 1028.3mb 46f 52f
1:00 7 11 mph 1028.3mb 46f 52f
12:54 10 14 mph 1028.2mb 46f 52f
12:48 6 10 mph 1028.2mb 46f 52f
12:42 8 10 mph 1028.1mb 46f 52f
12:36 8 14 mph 1028mb 46f 52f
12:30 10 15 mph 1027.8mb 46f 53f
12:24 10 15 mph 1027.8mb 46f 53f
12:18 10 14 mph 1027.6mb 46f 53f
12:12 8 14 mph 1027.6mb 46f 53f
12:06 9 15 mph 1027.5mb 46f 53f
mer. 04/15 11:48 10 14 mph 1027.4mb 46f 54f
11:42 11 15 mph 1027.1mb 46f 54f
11:36 10 15 mph 1027.1mb 46f 54f
11:30 10 14 mph 1027.1mb 46f 54f
11:24 10 14 mph 1027mb 46f 54f
11:18 9 15 mph 1026.8mb 46f 55f
11:12 11 16 mph 1026.7mb 46f 55f
11:06 9 16 mph 1026.7mb 45f 55f
11:00 10 17 mph 1026.6mb 45f 55f
10:54 10 16 mph 1026.6mb 45f 55f
10:48 11 14 mph 1026.5mb 45f 55f
10:42 10 15 mph 1026.5mb 45f 56f
10:36 9 15 mph 1026.3mb 45f 56f
10:30 6 13 mph 1026.3mb 45f 56f
10:24 8 15 mph 1026.3mb 45f 56f
10:18 7 11 mph 1026.3mb 45f 56f
10:06 10 15 mph 1026.1mb 44f 57f
10:00 11 17 mph 1025.9mb 44f 57f
9:54 10 14 mph 1025.8mb 44f 57f
9:48 8 15 mph 1025.8mb 44f 58f
9:42 8 15 mph 1025.7mb 44f 58f
9:36 11 17 mph 1025.4mb 44f 58f
9:30 14 17 mph - - -
9:24 9 17 mph 1025.1mb 43f 58f
9:18 11 20 mph 1024.9mb 43f 58f
9:12 9 13 mph 1024.9mb 43f 58f
9:06 9 11 mph 1024.8mb 43f 59f
9:00 8 11 mph 1024.8mb 42f 59f
8:54 8 11 mph 1024.5mb 42f 59f
8:48 9 14 mph 1024.3mb 42f 60f
8:42 8 11 mph 1024.3mb 42f 60f
8:36 11 14 mph 1024mb 42f 60f
8:30 9 11 mph 1024.1mb 42f 60f
8:24 9 13 mph 1023.7mb 42f 60f
8:18 10 14 mph 1023.6mb 42f 60f
8:12 10 14 mph 1023.5mb 42f 60f
8:06 9 14 mph 1023.4mb 42f 61f
8:00 8 13 mph 1023.2mb 42f 61f
7:54 8 13 mph 1023.2mb 41f 62f
7:48 9 15 mph 1023mb - -
7:42 9 13 mph 1022.9mb 42f 62f
7:36 9 14 mph 1022.6mb 42f 62f
7:30 10 16 mph 1022.5mb 42f 62f
7:24 8 16 mph 1022.4mb 42f 61f
7:18 10 15 mph 1022.3mb 42f 62f
7:12 11 17 mph 1022.2mb 42f 62f
7:06 14 20 mph 1022.1mb 42f 63f
7:00 13 23 mph 1022mb 42f 63f
6:54 17 22 mph 1021.9mb 42f 63f
6:48 11 17 mph 1021.9mb 42f 63f
6:42 14 21 mph 1021.7mb 42f 64f
6:36 20 24 mph 1021.6mb 42f 64f
6:30 16 24 mph 1021.5mb 42f 64f
6:24 20 24 mph 1021.3mb 42f 65f
6:18 16 24 mph 1021.3mb 42f 64f
6:12 17 25 mph 1021.2mb 42f 65f
6:06 16 24 mph 1021.2mb 43f 65f
6:00 15 26 mph 1021mb 43f 66f
5:54 17 24 mph 1021mb 43f 66f
5:42 16 23 mph 1020.8mb 43f 66f
5:36 14 22 mph 1020.5mb 43f 67f
5:30 13 26 mph 1020.4mb 43f 67f
5:24 16 23 mph 1020.1mb 43f 67f
5:18 16 23 mph 1019.9mb 43f 67f
5:12 16 23 mph 1019.9mb 43f 67f
5:06 15 24 mph 1019.8mb 43f 68f
5:00 11 23 mph 1019.8mb 43f 68f
4:54 16 23 mph 1019.7mb 43f 67f
4:48 16 22 mph 1019.5mb 43f 68f
4:42 11 16 mph 1019.4mb 43f 66f
4:36 13 16 mph 1019.4mb 43f 65f
4:30 15 25 mph 1019.4mb 44f 65f
4:24 20 26 mph 1019.2mb 44f 66f
4:18 9 18 mph - - -
4:12 10 18 mph 1019.4mb 44f 68f
4:06 15 22 mph 1019.4mb 44f 67f
4:00 16 24 mph 1019.3mb 44f 68f
3:54 18 26 mph 1019.1mb 44f 68f
3:48 15 22 mph 1018.9mb 44f -
3:42 13 16 mph 1018.9mb 44f 68f
3:36 10 20 mph 1018.8mb 44f 68f
3:30 8 24 mph 1018.7mb 44f 67f
3:24 16 24 mph 1018.7mb 44f 67f
3:18 14 22 mph 1018.6mb 44f 68f
3:12 15 21 mph 1018.5mb 44f 67f
3:06 17 23 mph 1018.6mb 44f 67f
3:00 6 16 mph 1018.7mb 44f 67f
2:54 10 24 mph 1018.7mb 45f 66f
2:48 16 23 mph 1018.6mb 45f 66f
2:42 14 22 mph 1018.6mb 45f 67f
2:36 10 23 mph 1018.7mb 46f 66f
2:24 8 21 mph 1018.7mb 46f 67f
2:18 15 24 mph 1018.7mb 46f 66f
2:12 14 20 mph 1018.6mb 46f 66f
2:06 10 15 mph 1018.6mb 47f 66f
2:00 8 14 mph 1018.6mb 47f 66f
1:54 11 18 mph 1018.7mb 47f 66f
1:48 14 25 mph 1018.7mb 47f 66f
1:42 13 24 mph 1018.7mb 47f 65f
1:36 13 20 mph 1018.6mb 47f 64f
1:30 9 20 mph 1018.6mb 47f 65f
1:24 13 17 mph 1018.7mb 47f 65f
1:18 15 20 mph 1018.8mb 47f 64f
1:06 11 22 mph 1018.7mb 47f 64f
1:00 13 28 mph 1018.6mb 47f 64f
12:54 11 15 mph 1018.6mb 47f 63f
12:48 11 15 mph 1018.8mb 46f 62f
12:42 9 17 mph 1018.7mb - -
12:36 8 21 mph 1018.8mb 46f 62f
12:30 18 29 mph 1018.8mb 46f 62f
12:24 15 20 mph 1018.7mb 46f 62f
12:18 14 24 mph 1018.8mb 46f 62f
12:12 20 24 mph 1018.7mb 46f 62f
12:06 11 24 mph 1018.8mb 46f 62f
12:00 8 20 mph 1018.7mb 46f 62f
11:54 16 22 mph 1018.9mb 46f 63f
11:48 10 22 mph 1018.8mb 46f 63f
11:42 11 20 mph 1018.8mb 46f 63f
11:36 13 21 mph 1018.9mb 46f 61f
11:30 15 21 mph 1018.8mb 46f 61f
11:24 11 18 mph 1018.8mb 46f 62f
11:18 13 24 mph 1018.8mb 46f 61f
11:12 16 21 mph 1018.6mb 46f 60f
11:06 9 20 mph 1018.7mb 46f 60f
11:00 11 20 mph 1018.7mb 46f 61f
10:54 15 20 mph 1018.8mb 46f 61f
10:48 9 21 mph 1018.8mb 46f 60f
10:42 14 22 mph 1018.8mb 46f 61f
10:36 15 22 mph 1018.9mb 46f 60f
10:30 18 22 mph 1018.9mb 46f 60f
10:24 11 20 mph 1018.8mb 46f 60f
10:18 15 23 mph 1018.9mb 46f 60f
10:12 14 22 mph 1018.7mb 46f 60f
10:06 13 22 mph 1018.7mb 45f 60f
10:00 13 21 mph 1018.6mb 45f 61f
9:54 16 22 mph 1018.5mb 45f 60f
9:48 11 20 mph 1018.4mb 45f 60f
9:42 14 22 mph 1018.3mb 45f 60f
9:36 9 14 mph 1018.4mb 45f 61f
9:30 9 14 mph 1018.5mb 45f 60f
9:24 8 16 mph 1018.5mb 45f 59f
9:18 10 15 mph 1018.4mb 45f 59f
9:12 11 17 mph 1018.4mb 45f 58f
9:06 13 18 mph 1018.3mb 45f 58f
9:00 13 18 mph 1018.2mb 44f 58f
8:54 15 20 mph 1018.1mb 44f 58f
8:48 14 17 mph 1018.1mb 44f 58f
8:42 10 15 mph 1018mb 44f 58f
8:36 8 13 mph 1018mb 44f 58f
8:30 9 14 mph 1017.9mb 44f 57f
8:24 9 13 mph 1017.9mb 44f 57f
8:18 9 15 mph 1017.9mb 44f 57f
8:12 11 15 mph 1018mb 44f 56f
8:06 8 11 mph 1017.9mb 44f 56f
8:00 7 14 mph 1018mb 44f 56f
7:54 9 14 mph 1017.9mb 43f 56f
7:48 8 13 mph 1017.9mb 43f 55f
7:42 8 14 mph 1018mb 43f 55f
7:36 9 14 mph 1017.9mb 43f 55f
7:30 9 14 mph 1017.9mb 43f 54f
7:24 10 16 mph 1017.9mb 43f 54f
7:18 11 20 mph 1017.9mb 43f 53f
7:12 11 18 mph 1017.8mb 43f 53f
7:06 10 15 mph 1017.7mb 43f 52f
7:00 10 15 mph 1017.7mb 43f 52f
6:54 9 14 mph 1017.7mb 43f 52f
6:48 11 16 mph 1017.6mb 43f 51f
6:42 9 13 mph 1017.6mb 43f 51f
6:36 9 11 mph 1017.5mb 43f 51f
6:30 8 11 mph 1017.4mb 43f 51f
6:24 8 13 mph 1017.4mb 43f 51f
6:18 10 14 mph 1017.4mb 43f 51f
6:12 10 14 mph 1017.3mb 43f 51f
6:06 10 14 mph 1017.2mb 43f 51f
6:00 9 14 mph 1017.2mb 43f 51f
5:54  -  mph 1017.1mb 43f 51f
5:48 8 14 mph 1017.1mb 43f 51f
5:42 10 16 mph 1017.1mb 43f 51f
5:36 9 14 mph 1017.1mb 43f 51f
5:30 10 13 mph - - -
5:24 9 13 mph - - -
5:18 8 13 mph 1017.1mb 44f 51f
5:12 10 16 mph 1017.2mb 44f 51f
5:06 10 14 mph 1017.1mb 44f 51f
5:00 10 14 mph 1017.2mb 44f 51f
4:54 11 14 mph 1017.1mb 44f 51f
4:48 8 11 mph 1017.1mb 44f 51f
4:42 11 14 mph 1017.1mb 44f 52f
4:36 9 14 mph 1017.1mb 44f 52f
4:30 9 13 mph 1017mb 44f 52f
4:24 9 14 mph 1017.2mb 44f 52f
4:18 9 13 mph 1017.2mb 44f -
4:12 10 14 mph 1017.1mb 44f 53f
4:06 9 14 mph 1017.1mb 44f 53f
4:00 8 14 mph 1016.9mb 44f 53f
3:54 10 15 mph 1016.9mb 44f 53f
3:48 10 15 mph 1017mb 44f 53f
3:42 11 15 mph 1017mb 44f 53f
3:36 10 14 mph 1016.9mb 44f 54f
3:30 8 14 mph 1016.9mb 44f 54f
3:24 9 14 mph 1016.8mb 44f 54f
3:18 10 16 mph 1016.9mb 44f 54f
3:12 9 14 mph 1017mb 44f 55f
3:06 10 14 mph 1016.9mb 44f 55f
3:00 11 14 mph 1016.9mb 45f 55f
2:54 10 14 mph 1016.9mb 45f 55f
2:48 11 16 mph - - -
2:42 10 14 mph 1017mb 45f 55f
2:36 9 15 mph 1017mb 45f 56f
2:24 10 15 mph 1017.1mb 46f 56f
2:06 8 13 mph 1017.3mb 46f 56f
1:54 8 11 mph 1017.4mb 46f 56f
1:48 7 9 mph - - -
1:42 7 9 mph 1017.5mb 47f 56f
1:36 6 10 mph 1017.6mb 47f 56f
1:30 7 9 mph 1017.6mb 47f 56f
1:24 6 8 mph 1017.8mb 47f 56f
1:18 7 9 mph 1017.9mb 47f 55f
1:12 6 7 mph 1018.1mb 47f 55f
1:06 6 8 mph 1018.1mb 47f 53f
1:00 5 6 mph 1017.9mb 47f 51f
12:54 2 5 mph 1018mb 47f 51f
12:48 5 7 mph - - -
12:42 5 7 mph 1018.1mb 47f 52f
12:36  -  1 mph 1018.2mb 47f 51f
12:30  -  mph 1018.2mb 47f 51f
12:24  -  1 mph 1018.1mb 47f 51f
12:18  -  2 mph 1018.2mb 47f 51f
12:12 1 2 mph 1018.3mb 47f 51f
12:06 2
mph
1018.2mb 47f 51f
12:00  -  1 mph - - -
mar. 04/14 11:54  -  2 mph 1018.3mb 47f 51f
11:48 1
mph
1018.2mb - -
11:42  -  1 mph 1018.2mb 47f 52f
11:36  -  3 mph 1018.3mb 47f 51f
11:30 3 6 mph 1018.3mb 47f 51f
11:24 5 6 mph 1018.3mb 47f 51f
11:18 3
mph
1018.4mb 48f 52f
11:06 3 5 mph 1018.7mb 47f 52f
11:00 2 3 mph 1018.8mb 47f 52f
10:54  -  1 mph 1018.8mb 47f 53f
10:48  -  1 mph 1018.7mb 47f 53f
10:42 1 3 mph 1018.7mb 47f 53f
10:36 2 3 mph 1018.7mb 47f 53f
10:30 2 3 mph 1018.7mb 47f 53f
10:24 2
mph
1018.7mb 47f 53f
10:18 1 2 mph 1018.7mb 47f 53f
10:12 1 2 mph 1018.7mb 47f 53f
10:06 1 3 mph 1018.6mb 47f 53f
10:00 2 3 mph 1018.6mb 47f 53f
9:42 2 3 mph 1018.7mb 47f 53f
9:36 2
mph
1018.7mb 47f 53f
9:30 2
mph
1018.8mb 47f 53f
9:24 1 2 mph 1018.7mb 47f 53f
9:18 2 5 mph 1018.7mb 47f 53f
9:06 2 3 mph 1018.6mb 46f 53f
9:00 3 5 mph 1018.6mb 46f 53f
8:54 5
mph
1018.6mb 46f 53f
8:48 2 5 mph 1018.5mb 46f 53f
8:42 5 6 mph 1018.5mb 46f 53f
8:36 5 7 mph 1018.5mb 46f 53f
8:30 6
mph
1018.4mb 46f 53f
8:24 2 5 mph 1018.3mb 46f 54f
8:18 2 6 mph 1018.3mb 45f 54f
8:12 6 7 mph 1018.2mb 45f 54f
8:06 6 7 mph 1018.1mb 45f 54f
8:00 6 7 mph 1018mb 45f 55f
7:54 6 7 mph 1018mb 45f 55f
7:48 6 8 mph 1018mb 45f 55f
7:42 8 10 mph 1017.8mb 45f 55f
7:36 7 9 mph 1017.8mb 45f 55f
7:30 6 7 mph 1017.8mb 44f 55f
7:24 7 11 mph 1017.8mb 44f 55f
7:18 8 11 mph 1017.7mb 44f 55f
7:12 9 10 mph 1017.7mb 44f 56f
7:06 9 10 mph 1017.8mb 44f 56f
7:00 8 9 mph 1017.8mb 44f 57f
6:54 7 8 mph 1017.8mb 44f 57f
6:48 8 10 mph 1017.7mb 44f 58f
6:42 8 9 mph 1017.6mb 44f 59f
6:36 5 7 mph 1017.5mb 44f 64f
6:30 5 7 mph 1017.6mb 44f 65f
6:24 5 7 mph 1017.5mb 44f 65f
6:18 5 6 mph 1017.5mb 44f 65f
6:12 5 7 mph 1017.4mb 44f 65f
6:06 6 8 mph 1017.4mb 44f 65f
6:00 5 7 mph 1017.4mb 44f 65f
5:54 6 9 mph 1017.5mb 44f 65f
5:48 3 7 mph 1017.6mb 44f -
5:42 3 8 mph 1017.6mb 44f 65f
5:36 6 9 mph 1017.6mb 44f 65f
5:30 6 10 mph 1017.7mb 44f 65f
5:24 7 9 mph 1017.6mb 44f 65f
5:18 6 9 mph 1017.7mb 44f 65f
5:12 5 9 mph 1017.6mb 44f 65f
5:06 8 10 mph 1017.6mb 44f 65f
5:00 6 9 mph 1017.7mb 45f 65f
4:54 5 9 mph 1017.6mb 45f 65f
4:48 8 11 mph 1017.7mb - -
4:42 8 11 mph 1017.6mb 45f 65f
4:36 10 13 mph 1017.7mb 45f 65f
4:30 9 11 mph 1017.7mb 45f 65f
4:24 6 11 mph 1017.8mb 45f 65f
4:18 6 10 mph 1017.9mb 45f 65f
4:12 6 10 mph 1017.9mb 45f 65f
4:06 7 13 mph 1017.9mb 45f 66f
4:00 9 17 mph 1017.9mb 46f 66f
3:54 10 15 mph 1017.9mb 46f 66f
3:48 8 18 mph 1017.9mb 46f 66f
3:42 14 20 mph 1018mb 46f 65f
3:36 14 18 mph 1018.1mb 46f 66f
3:30 11 15 mph 1018.1mb 46f 66f
3:24 8 14 mph 1018.2mb 46f 67f
3:18 10 18 mph 1018.3mb 46f 67f
3:12 10 17 mph 1018.3mb 46f 66f
3:06 10 17 mph 1018.4mb 46f 66f
3:00 13 21 mph 1018.4mb 46f 66f
2:54 9 18 mph 1018.5mb 46f 67f
2:48 10 17 mph 1018.5mb 46f -
2:42 14 17 mph 1018.6mb 46f 66f
2:36 10 15 mph 1018.6mb 46f 66f
2:30 7 15 mph 1018.6mb 46f 66f
2:24 7 13 mph 1018.6mb 46f 66f
2:18 6 14 mph 1018.7mb 46f 65f
2:12 6 13 mph 1018.7mb 45f 65f
2:06 6 11 mph 1018.8mb 46f 65f
2:00 6 10 mph 1018.9mb 46f 65f
1:54 6 11 mph 1019mb 46f 65f
1:48 3 10 mph - - -
1:42 6 14 mph 1019.1mb 47f 65f
1:36 10 14 mph 1019.1mb 47f 64f
1:30 9 14 mph 1019.2mb 47f 64f
1:24 8 14 mph 1019.1mb 47f 63f
1:18 8 13 mph 1019.1mb 47f 63f
1:12 10 14 mph 1019.2mb 47f 63f
1:06 8 11 mph 1019.2mb 47f 62f
1:00 9 13 mph 1019.3mb 47f 62f
12:54 7 10 mph 1019.4mb 48f 62f
12:48 6 9 mph - - -
12:42 8 10 mph 1019.5mb 48f 61f
12:36 8 11 mph 1019.6mb 48f 61f
12:30 8 9 mph 1019.6mb 48f 60f
12:24 6 9 mph 1019.6mb 48f 60f
12:18 5 9 mph 1019.7mb 48f 60f
12:12 9 13 mph 1019.8mb 48f 60f
12:06 9 15 mph 1019.8mb 48f 59f
12:00 10 14 mph 1019.9mb 48f 60f
11:54 11 15 mph 1020mb 48f 59f
11:48 10 17 mph 1019.9mb - -
11:42 15 21 mph 1019.8mb 48f 59f
11:36 13 16 mph 1019.8mb 48f 59f
11:30 10 15 mph 1019.8mb 48f 59f
11:24 10 16 mph 1019.8mb 48f 59f
11:18 9 15 mph 1019.8mb 48f 59f
11:12 13 20 mph 1019.8mb 48f 59f
11:06 10 15 mph 1019.8mb 48f 59f
11:00 9 13 mph 1019.8mb 48f 59f
10:54 9 14 mph 1019.8mb 48f 59f
10:48 10 13 mph 1019.9mb 48f 58f
10:42 8 13 mph 1019.8mb 48f 58f
10:36 9 13 mph 1019.7mb 48f 58f
10:30 9 14 mph 1019.8mb 48f 58f
10:24 11 15 mph 1019.8mb 48f 57f
10:18 6 14 mph - - -
10:12 9 13 mph 1020mb 48f 57f
10:06 6 8 mph 1019.8mb 48f 57f
10:00 6 10 mph 1019.8mb 48f 57f
9:54 5 11 mph 1019.9mb 48f 57f
9:48 6 11 mph - - -
9:42 6 10 mph 1019.7mb 48f 57f
9:36 5 7 mph 1019.4mb 47f 56f
9:30 5 6 mph 1018.9mb 47f 56f
9:24 6 11 mph 1018.9mb 47f 56f
9:18 9 13 mph 1019.1mb 47f 56f
9:12 8 14 mph 1019mb 47f 56f
9:06 8 18 mph 1018.7mb 47f 56f
9:00 11 25 mph 1019.1mb 47f 56f
8:54 11 20 mph 1019.3mb 47f 58f
8:48 8 10 mph 1019.1mb 47f 59f
8:42 8 11 mph 1019.1mb 47f 60f
8:36 9 14 mph 1018.9mb 47f 60f
8:30 8 11 mph 1018.6mb 47f 60f
8:24 8 10 mph 1018.6mb 47f 60f
8:18 8 13 mph 1018.6mb 47f 60f
8:12 6 10 mph 1018.6mb 47f 60f
8:06 8 13 mph 1018.8mb 47f 60f
8:00 9 14 mph 1018.9mb 47f 60f
7:54 7 10 mph 1018.7mb 47f 60f
7:48 8 13 mph 1018.8mb 47f 60f
7:42 7 11 mph 1018.8mb 47f 60f
7:36 8 10 mph 1018.6mb 47f 60f
7:30 6 10 mph 1018.6mb - -
7:24 9 11 mph 1018.4mb 46f 60f
7:18 8 11 mph 1018.4mb 47f 60f
7:12 9 20 mph 1018.3mb 47f 60f
7:06 8 13 mph 1018.2mb 47f 60f
7:00 10 17 mph 1018mb 47f 60f
6:54 10 17 mph 1018.1mb 47f 60f
6:48 11 22 mph 1018mb 46f 60f
6:42 14 23 mph 1018mb 46f 60f
6:36 15 20 mph 1017.9mb 46f 60f
6:30 15 21 mph 1018mb 46f 60f
6:24 9 23 mph 1018.1mb 46f 60f
6:18 13 22 mph 1018.1mb 46f 60f
6:12 11 23 mph 1018.1mb 46f 60f
6:06 15 22 mph 1018.1mb 46f 60f
6:00 7 13 mph 1018.2mb 46f -
5:54 8 15 mph 1018.2mb 46f -
5:48 8 13 mph - - -
5:42 7 14 mph 1017.6mb 46f 58f
5:36 6 15 mph 1017.5mb 46f 58f
5:30 13 17 mph 1017.4mb 46f 58f
5:24 14 22 mph 1017.2mb 46f 58f
5:18 8 16 mph 1017.2mb 46f 58f
5:12 11 18 mph 1017.2mb 46f 58f
5:06 13 17 mph 1017.2mb 46f 58f
5:00 11 18 mph 1017.3mb 46f 58f
4:54 9 17 mph 1017.4mb 46f 58f